Temperature
15 14 14 14 14 13 14 14 13 13 13 12 12 12 11 11 11 10 10 10 10 10 10 10 10 9 9 9 9 10 10 10 10 10 10 10 10 10 10 10 10 11 11
15 15 14 14 14 14 14 13 13 13 12 12 12 12 11 11 10 10 9 10 10 10 10 9 9 9 9 9 9 9 10 10 10 10 10 10 10 10 10 9 9 10 10
15 15 14 14 14 14 13 13 13 13 12 12 12 12 11 11 11 10 9 9 9 10 9 9 9 9 9 9 8 9 9 9 9 9 9 9 9 9 9 8 8 9 8
15 15 14 14 14 14 13 13 13 13 12 12 12 12 12 12 11 10 10 10 9 9 9 9 9 9 9 9 8 8 8 8 9 8 8 8 8 8 7 7 7 7 7
15 15 15 14 14 14 13 13 13 12 12 12 11 11 11 11 11 11 10 10 10 9 9 9 9 9 9 9 8 8 8 8 8 8 8 7 7 7 6 6 6 6 6
16 15 15 14 14 13 13 13 13 12 12 12 11 11 11 11 11 11 10 10 10 10 9 9 9 9 9 8 8 8 8 7 7 7 7 6 6 5 5 5 4 4 4
16 15 15 15 14 14 14 13 12 12 12 11 11 10 11 11 11 11 10 10 10 10 9 9 9 9 9 8 8 8 7 7 7 7 6 5 5 4 4 4 4 4 4
17 16 16 15 15 14 13 13 12 12 12 12 11 10 9 10 11 11 11 11 10 10 10 9 9 9 8 8 8 7 7 7 6 6 6 5 4 3 3 3 3 3 3
16 16 16 15 14 14 13 13 13 13 12 12 11 10 10 11 10 11 11 11 10 10 9 9 9 8 8 7 7 7 7 6 6 6 5 4 4 3 3 2 2 3 3
15 15 15 14 14 13 13 13 13 13 12 11 11 11 11 11 11 11 11 11 10 10 9 9 9 8 8 7 7 6 6 6 6 5 5 4 3 3 2 2 2 2 2
14 14 14 14 13 13 13 13 13 12 12 11 11 11 11 10 11 11 11 11 11 10 9 9 8 8 7 6 6 5 5 5 5 5 4 4 3 2 2 1 1 1 1
13 13 13 13 13 12 12 12 12 12 12 11 11 11 11 11 10 10 10 10 10 10 9 8 8 7 7 6 5 5 5 4 4 4 4 3 3 2 2 1 1 1 1
12 13 13 13 12 12 12 12 11 11 11 11 10 11 11 10 10 10 10 9 9 9 9 8 7 6 6 5 4 4 4 3 3 3 3 3 2 2 2 2 1 1 0
12 12 12 12 12 11 11 11 11 10 10 10 10 10 10 10 9 9 9 9 8 7 7 6 6 5 4 4 3 3 2 2 2 2 2 2 2 2 2 2 1 1 0
12 11 11 11 11 10 10 10 10 10 9 9 10 10 9 9 9 8 8 7 7 6 4 4 4 4 3 3 2 2 2 1 1 1 1 1 1 1 1 1 0 0 -0
11 11 11 10 10 10 10 9 9 9 9 9 9 9 9 8 7 7 6 6 5 4 4 3 3 3 2 2 1 1 0 0 0 -0 -0 -0 -0 -0 -1 -1 -1 -2 -2
10 10 10 10 9 9 9 9 9 9 9 9 9 8 8 7 6 5 5 4 3 3 3 2 2 1 1 0 -0 -0 -1 -1 -1 -1 -1 -1 -1 -2 -2 -2 -3 -3 -3
9 9 9 9 9 9 9 9 9 8 8 8 8 7 6 5 4 3 3 3 2 2 2 1 1 0 -0 -1 -1 -1 -2 -2 -2 -2 -2 -2 -2 -2 -3 -3 -3 -4 -4
8 8 8 8 8 8 8 8 8 7 7 7 6 5 4 3 3 2 2 1 1 1 1 0 -1 -1 -2 -2 -2 -3 -3 -3 -3 -3 -3 -3 -3 -3 -4 -4 -4 -5 -5
7 7 7 7 7 7 6 6 6 6 5 4 3 3 2 2 1 1 1 1 0 -0 -1 -1 -2 -3 -3 -4 -4 -5 -5 -5 -5 -4 -4 -4 -4 -4 -4 -4 -4 -5 -5
5 5 5 5 5 4 4 4 4 3 3 2 1 1 1 1 0 0 -0 -1 -1 -2 -3 -3 -4 -5 -5 -6 -6 -7 -7 -7 -6 -5 -5 -5 -5 -5 -4 -4 -4 -4 -5
3 3 2 2 2 2 1 1 1 1 1 1 0 0 0 -0 -1 -1 -1 -2 -2 -3 -4 -5 -6 -6 -6 -7 -7 -8 -8 -8 -8 -6 -7 -7 -6 -6 -5 -5 -5 -4 -5
1 1 0 0 -0 -0 -0 -0 -0 0 0 -0 -0 -1 -1 -1 -2 -2 -3 -3 -3 -4 -5 -6 -6 -7 -7 -7 -8 -8 -8 -8 -8 -7 -8 -7 -6 -6 -6 -5 -5 -5 -5
-0 -0 -0 -1 -1 -1 -1 -1 -1 -1 -1 -1 -2 -2 -2 -3 -3 -3 -4 -4 -5 -5 -6 -7 -7 -7 -7 -8 -8 -8 -8 -8 -8 -7 -8 -8 -7 -7 -6 -6 -5 -4 -5
-1 -1 -1 -1 -1 -1 -1 -1 -2 -2 -2 -2 -3 -3 -3 -4 -4 -5 -5 -5 -6 -7 -7 -6 -7 -7 -7 -7 -8 -8 -8 -8 -8 -7 -7 -8 -7 -8 -7 -5 -4 -4 -5
-1 -1 -1 -1 -2 -2 -2 -3 -3 -3 -3 -4 -4 -4 -4 -5 -6 -6 -7 -7 -7 -7 -7 -7 -7 -7 -7 -7 -7 -7 -8 -8 -8 -8 -7 -8 -8 -9 -8 -6 -5 -5 -5
Wind_Speed
10 10 9 10 10 9 9 8 8 7 7 6 6 6 7 7 7 6 7 10 10 9 8 6 6 5 5 6 6 6 7 7 7 7 7 8 8 8 8 8 9 9 9
12 11 10 10 11 11 10 10 9 8 7 6 7 7 7 7 7 7 7 10 10 9 8 7 6 5 5 5 5 5 5 5 6 6 6 6 7 7 7 7 8 8 9
15 13 11 10 12 13 12 10 10 8 6 6 7 7 7 8 8 9 8 8 9 9 9 8 7 6 5 4 4 4 4 4 4 4 5 5 5 6 6 7 7 8 9
18 15 12 12 13 13 12 10 9 8 8 7 7 6 7 7 9 9 9 9 8 9 10 9 8 7 5 4 3 3 3 3 3 3 4 4 5 6 6 7 7 8 9
21 18 13 13 15 13 11 11 10 10 9 8 7 6 6 7 8 9 10 11 10 9 9 10 9 8 6 4 2 1 1 2 3 4 5 5 6 7 8 9 9 10 10
21 19 14 15 15 12 12 12 12 11 9 8 7 6 7 7 7 9 10 11 11 12 11 11 10 9 7 6 3 1 2 4 5 6 7 7 8 9 10 11 12 12 13
19 18 14 15 15 15 15 16 13 13 10 9 6 6 6 8 9 9 10 10 12 13 13 12 11 10 9 8 5 3 3 5 6 7 8 9 10 11 13 13 14 15 15
20 17 18 16 16 15 17 17 16 12 10 10 9 6 6 8 9 11 10 10 11 12 13 14 12 11 9 8 6 4 2 4 6 8 9 10 12 13 14 15 16 17 18
20 19 18 17 16 16 16 18 19 18 13 13 12 9 6 9 6 8 12 11 12 11 11 13 13 12 10 8 7 6 3 2 5 7 9 11 13 14 16 18 19 20 20
18 19 18 17 17 15 17 17 19 17 17 13 11 12 9 5 6 6 7 10 11 11 11 9 11 11 10 8 6 5 4 2 4 7 9 12 14 16 18 20 21 22 22
17 17 18 17 17 16 17 17 18 19 17 16 12 9 11 6 7 6 5 6 8 9 9 9 9 10 10 9 8 6 4 2 4 7 10 13 16 18 20 21 22 23 23
14 17 17 17 17 16 17 18 17 19 18 18 15 11 9 8 10 9 8 5 5 6 7 6 7 8 8 8 7 6 4 3 5 9 13 16 18 19 21 21 22 23 23
13 15 15 16 15 16 16 15 15 16 18 18 15 12 11 9 5 7 7 4 3 3 4 5 5 7 8 8 7 6 4 4 8 12 16 18 19 20 21 22 23 23 24
13 14 14 15 15 15 13 12 11 12 12 13 12 10 7 5 4 4 4 5 4 3 3 4 3 5 6 6 5 4 5 7 11 14 17 19 20 21 22 22 23 23 24
10 12 12 13 13 12 12 11 9 10 9 9 8 7 5 3 3 3 3 3 6 5 5 4 3 2 3 4 5 5 8 10 13 17 18 19 21 21 22 23 24 24 24
9 9 10 10 9 9 9 9 8 9 10 8 7 9 7 6 5 5 5 4 3 3 3 3 2 2 4 5 6 8 10 13 16 17 18 20 21 22 23 24 24 25 25
6 6 5 6 6 7 8 9 9 10 11 9 9 10 9 9 7 6 6 5 4 3 3 2 2 2 3 5 7 9 11 12 13 16 18 20 22 23 23 23 24 24 24
4 2 1 2 4 6 7 9 10 11 11 11 11 11 11 9 9 7 6 5 4 3 3 3 2 4 5 6 7 9 10 11 13 16 19 21 22 23 23 23 23 23 24
6 5 4 5 5 6 7 8 10 11 11 11 11 11 11 10 9 6 6 5 4 3 2 2 2 3 4 5 7 8 10 10 12 15 18 19 20 21 21 22 23 23 24
10 9 9 9 9 9 9 10 11 12 12 11 10 10 9 8 8 7 5 5 4 3 3 3 4 4 5 6 7 8 8 8 9 12 15 17 19 20 21 23 23 24 25
12 11 11 11 11 10 10 11 11 12 13 12 11 10 8 9 9 5 4 3 3 2 3 4 5 5 6 6 6 7 9 10 10 10 10 10 12 13 16 19 21 23 24
12 12 12 12 11 10 16 17 14 12 12 11 10 9 8 7 7 5 3 2 3 4 4 4 5 7 8 8 7 7 9 10 10 6 9 12 11 13 14 16 20 23 25
12 12 12 13 13 15 19 19 17 12 11 10 9 7 5 5 4 1 0 2 3 4 6 6 8 8 9 8 9 10 10 11 13 12 13 14 13 14 14 18 23 25 27
11 11 12 13 13 15 19 18 17 11 10 8 7 5 4 3 1 1 2 3 4 4 5 6 7 8 8 9 9 10 12 13 14 12 12 14 13 14 14 15 21 25 27
11 10 10 11 11 12 14 13 11 7 7 6 5 4 2 1 1 4 4 4 5 5 6 8 11 12 14 15 13 10 10 10 11 11 10 9 10 12 13 14 17 21 22
9 9 10 9 9 9 10 9 7 4 5 4 3 2 2 3 4 5 4 4 6 7 7 8 8 10 10 11 11 9 8 8 8 7 6 5 9 9 8 9 9 11 15
Wind_Direction
206 205 207 204 206 204 200 205 206 197 197 193 195 197 196 198 192 182 153 144 143 147 147 143 134 122 108 98 88 76 66 57 52 46 43 40 37 34 32 30 27 22 17
213 210 212 210 210 208 208 208 210 203 202 200 199 202 204 199 198 193 175 155 148 152 158 158 149 136 122 108 94 80 65 53 45 37 33 30 26 23 20 18 14 9 3
217 215 218 214 212 210 209 210 209 207 204 200 203 203 204 204 201 197 191 181 168 160 167 169 161 151 138 120 100 82 67 49 33 22 16 12 8 3 358 356 355 351 347
218 218 220 218 213 208 205 203 202 202 202 204 204 199 202 202 207 203 196 194 188 180 175 173 172 164 156 139 113 85 62 36 9 349 341 338 337 335 331 331 332 331 330
219 218 220 218 212 207 206 204 205 207 207 205 205 200 204 203 205 204 206 200 196 193 187 169 170 166 168 164 153 108 29 353 332 317 310 308 308 310 310 310 312 312 313
221 221 221 219 211 209 208 206 204 206 210 198 194 201 209 210 210 209 209 203 199 198 199 189 185 178 177 179 179 205 301 311 308 304 300 297 297 297 298 299 301 302 302
224 221 222 219 212 211 211 208 204 203 202 187 184 202 215 220 220 213 212 209 204 202 202 201 203 197 190 185 188 212 271 291 296 297 296 295 293 293 294 294 295 295 296
226 221 222 220 214 214 213 210 204 204 198 190 196 200 217 214 220 218 213 213 210 203 207 207 207 205 204 202 185 193 237 279 292 295 296 297 296 296 295 295 294 293 294
227 223 223 224 218 216 215 211 206 205 203 201 205 201 208 222 195 198 214 212 211 207 208 208 208 205 204 205 197 184 192 254 287 295 299 301 302 301 299 298 297 296 295
228 226 225 225 223 219 220 215 211 213 210 203 208 224 235 241 192 184 199 212 213 213 210 202 202 198 197 197 189 171 177 228 277 294 300 302 302 300 298 296 295 295 295
231 227 224 225 225 222 222 219 214 214 214 210 202 203 216 225 231 214 196 189 204 212 208 202 196 192 189 190 188 177 177 225 284 297 300 300 299 298 297 296 295 295 295
237 231 225 225 225 224 223 223 218 216 217 218 211 204 201 202 210 215 216 188 189 189 194 194 194 189 183 185 183 168 184 237 291 299 299 299 298 298 297 295 294 293 292
244 236 227 227 226 226 225 223 220 218 218 220 218 214 217 219 205 204 205 177 159 146 177 195 196 185 178 179 174 178 211 267 295 300 300 299 300 299 297 295 292 290 289
253 248 236 231 229 226 222 218 219 217 215 217 220 214 207 206 192 191 179 160 149 150 173 171 169 183 174 176 174 214 257 277 294 298 298 298 298 297 294 291 289 288 288
264 258 246 234 228 222 214 206 209 206 201 202 196 182 168 149 132 119 119 148 158 173 187 165 163 166 171 190 209 251 273 280 289 292 293 294 293 292 290 289 288 286 285
269 262 253 240 226 214 200 191 188 185 181 176 165 158 148 138 122 111 106 89 92 139 161 161 174 166 188 208 234 262 271 277 280 283 286 289 289 289 288 286 285 284 283
286 269 254 233 210 193 182 175 171 166 165 157 153 150 140 131 122 111 104 102 98 108 146 152 171 178 206 238 257 261 267 273 277 279 283 287 289 288 286 284 283 283 282
342 329 285 176 161 159 160 159 156 154 152 148 144 137 132 127 118 117 116 114 115 110 137 169 182 197 226 247 263 271 274 275 277 282 285 287 288 286 285 284 283 282 281
35 44 64 90 105 116 125 132 134 133 132 132 133 132 132 129 125 123 120 120 120 124 135 182 220 226 242 253 270 274 275 277 279 282 285 287 287 286 285 283 282 282 282
52 57 63 71 80 90 99 107 112 113 112 110 110 113 117 120 123 125 122 125 134 156 184 220 244 253 258 263 271 281 287 287 288 288 286 285 285 285 283 282 282 282 281
60 64 69 71 74 81 91 98 100 104 104 100 95 92 95 105 116 120 130 148 169 200 225 245 259 267 269 274 279 288 291 296 293 290 288 286 287 285 285 282 280 278 278
66 68 70 74 76 84 94 95 96 93 94 96 94 90 91 91 99 104 124 183 216 236 248 257 267 271 278 284 290 292 294 297 298 292 295 293 290 287 285 283 281 282 282
69 73 74 77 79 84 88 89 89 87 86 87 91 97 99 99 93 95 160 257 257 269 270 274 275 278 287 292 295 292 288 288 287 290 294 290 289 286 285 283 283 282 281
65 67 70 75 78 79 83 85 87 84 87 90 94 101 110 119 116 268 263 267 268 266 271 274 277 283 285 288 285 282 284 285 284 283 280 284 288 287 289 286 284 283 283
68 67 68 74 81 84 87 91 92 94 98 100 101 97 80 37 314 286 281 278 286 284 274 277 283 285 286 286 287 287 284 284 288 290 290 283 287 295 292 287 283 282 281
77 78 73 73 84 94 97 96 91 93 97 98 92 67 25 341 323 316 304 289 291 300 301 293 286 282 282 282 279 269 270 273 280 288 284 278 290 305 298 283 282 285 285
Height
1548 1549 1550 1551 1552 1553 1554 1555 1555 1556 1556 1556 1556 1556 1557 1557 1558 1558 1556 1555 1555 1555 1554 1554 1554 1553 1553 1553 1552 1552 1551 1551 1550 1550 1549 1549 1548 1548 1547 1547 1546 1546 1546
1544 1545 1546 1547 1549 1549 1551 1552 1553 1553 1553 1554 1554 1554 1555 1555 1555 1555 1555 1553 1553 1553 1553 1553 1552 1552 1552 1552 1551 1551 1550 1550 1549 1549 1548 1547 1547 1546 1546 1545 1544 1544 1543
1540 1541 1542 1543 1544 1546 1547 1548 1549 1550 1550 1551 1551 1551 1552 1552 1552 1552 1552 1552 1551 1551 1551 1551 1551 1551 1551 1550 1550 1550 1549 1548 1548 1547 1546 1546 1545 1544 1544 1543 1542 1542 1541
1535 1536 1537 1538 1540 1541 1542 1543 1544 1546 1546 1547 1548 1548 1548 1548 1549 1549 1549 1549 1549 1549 1548 1548 1549 1549 1549 1549 1548 1548 1547 1547 1546 1545 1544 1544 1543 1542 1542 1541 1540 1540 1539
1530 1531 1532 1533 1534 1535 1537 1538 1539 1541 1542 1543 1544 1544 1545 1545 1545 1545 1545 1545 1545 1546 1546 1545 1546 1546 1546 1546 1546 1546 1545 1545 1544 1543 1542 1541 1541 1540 1539 1539 1538 1537 1536
1524 1525 1526 1527 1528 1529 1531 1532 1534 1536 1537 1539 1540 1540 1541 1541 1541 1541 1541 1541 1541 1542 1543 1543 1543 1543 1543 1543 1544 1543 1543 1542 1541 1541 1540 1539 1538 1538 1537 1536 1536 1535 1534
1517 1518 1519 1521 1521 1522 1524 1526 1528 1529 1531 1533 1535 1535 1535 1536 1536 1536 1536 1537 1537 1537 1538 1539 1539 1539 1539 1540 1540 1540 1540 1539 1539 1538 1537 1536 1535 1535 1534 1534 1533 1532 1531
1510 1511 1512 1513 1514 1515 1517 1518 1520 1522 1524 1526 1529 1530 1531 1531 1529 1530 1530 1531 1532 1532 1533 1534 1534 1535 1535 1536 1535 1536 1536 1535 1535 1534 1533 1532 1532 1531 1531 1531 1530 1529 1528
1502 1503 1504 1505 1506 1508 1509 1510 1512 1514 1516 1518 1521 1524 1524 1524 1523 1523 1523 1524 1525 1526 1527 1528 1529 1530 1530 1531 1531 1530 1531 1530 1530 1529 1528 1528 1527 1526 1526 1525 1525 1524 1523
1494 1495 1496 1497 1499 1500 1501 1503 1505 1506 1509 1510 1512 1514 1517 1517 1517 1516 1517 1518 1519 1520 1521 1522 1523 1524 1525 1525 1525 1525 1525 1525 1524 1524 1523 1522 1521 1520 1520 1519 1518 1517 1516
1486 1487 1488 1489 1490 1491 1493 1495 1496 1498 1500 1502 1502 1505 1507 1509 1510 1512 1511 1511 1512 1513 1514 1515 1516 1517 1518 1519 1519 1519 1519 1519 1519 1518 1517 1516 1515 1514 1513 1512 1510 1509 1508
1478 1479 1480 1480 1481 1483 1484 1486 1488 1489 1491 1494 1495 1496 1498 1499 1500 1503 1505 1504 1505 1506 1507 1508 1510 1510 1512 1513 1513 1513 1513 1513 1512 1511 1510 1509 1507 1506 1504 1503 1501 1500 1499
1471 1471 1472 1472 1473 1474 1476 1478 1479 1480 1482 1485 1487 1488 1490 1492 1493 1495 1497 1497 1498 1498 1500 1501 1502 1504 1505 1506 1506 1507 1506 1506 1505 1504 1503 1502 1500 1498 1495 1494 1492 1490 1489
1463 1464 1464 1464 1465 1467 1468 1470 1471 1472 1474 1476 1478 1480 1482 1483 1485 1487 1489 1490 1490 1491 1492 1494 1495 1497 1499 1500 1499 1500 1499 1498 1498 1497 1495 1493 1491 1489 1487 1485 1483 1481 1480
1456 1457 1457 1457 1458 1459 1460 1462 1463 1465 1467 1468 1470 1473 1474 1475 1477 1478 1480 1482 1485 1484 1485 1487 1489 1491 1492 1493 1493 1492 1491 1490 1489 1488 1487 1485 1483 1480 1478 1476 1474 1472 1470
1449 1449 1450 1450 1451 1452 1453 1454 1456 1457 1459 1461 1463 1465 1466 1467 1469 1471 1473 1475 1477 1479 1480 1481 1483 1485 1486 1486 1486 1485 1484 1482 1481 1479 1478 1476 1473 1471 1469 1466 1464 1463 1461
1443 1443 1443 1444 1444 1445 1446 1447 1449 1450 1452 1454 1455 1457 1459 1461 1463 1465 1467 1470 1472 1474 1476 1477 1479 1479 1480 1480 1479 1478 1476 1475 1473 1471 1470 1467 1465 1462 1460 1457 1455 1454 1452
1438 1438 1438 1438 1438 1439 1440 1441 1442 1444 1446 1448 1449 1451 1453 1456 1458 1461 1464 1466 1468 1470 1472 1472 1472 1473 1473 1473 1473 1471 1469 1467 1465 1464 1462 1459 1456 1454 1451 1449 1447 1445 1444
1435 1434 1434 1434 1434 1434 1435 1436 1438 1439 1441 1443 1445 1448 1450 1453 1456 1458 1461 1463 1464 1466 1466 1467 1467 1467 1467 1467 1466 1464 1462 1460 1458 1456 1454 1451 1449 1446 1444 1441 1439 1437 1436
1432 1432 1431 1431 1431 1431 1432 1433 1434 1436 1438 1441 1443 1446 1449 1452 1455 1457 1458 1459 1460 1461 1462 1462 1462 1462 1462 1461 1459 1458 1456 1454 1452 1449 1447 1444 1442 1439 1437 1434 1432 1430 1427
1431 1431 1430 1430 1430 1430 1431 1432 1433 1435 1437 1440 1443 1447 1449 1451 1453 1455 1456 1456 1457 1457 1458 1458 1458 1457 1457 1456 1455 1453 1451 1448 1446 1444 1440 1438 1435 1432 1430 1427 1424 1422 1420
1432 1432 1431 1432 1432 1432 1433 1434 1436 1437 1440 1442 1445 1447 1449 1450 1451 1452 1453 1453 1454 1454 1454 1454 1454 1453 1453 1452 1450 1448 1446 1444 1440 1439 1435 1432 1430 1426 1423 1420 1417 1414 1411
1436 1435 1436 1436 1436 1437 1438 1439 1440 1441 1443 1444 1446 1447 1448 1449 1449 1450 1450 1450 1450 1450 1450 1450 1449 1449 1448 1447 1445 1443 1441 1439 1436 1433 1430 1425 1423 1419 1416 1412 1409 1406 1403
1441 1440 1441 1441 1441 1442 1442 1443 1444 1444 1445 1446 1447 1447 1448 1448 1448 1448 1448 1447 1447 1446 1445 1445 1445 1444 1443 1441 1440 1438 1436 1433 1430 1428 1426 1420 1416 1413 1409 1405 1402 1399 1395
1446 1446 1446 1446 1446 1446 1446 1446 1447 1447 1447 1447 1447 1447 1447 1446 1446 1445 1445 1444 1444 1443 1442 1440 1440 1439 1437 1436 1435 1433 1431 1428 1424 1422 1420 1416 1410 1405 1400 1396 1393 1390 1387
1451 1450 1450 1450 1449 1449 1448 1448 1448 1448 1448 1447 1446 1446 1445 1444 1443 1443 1442 1442 1441 1440 1439 1437 1436 1435 1433 1432 1430 1428 1426 1423 1420 1415 1413 1410 1404 1399 1391 1385 1384 1381 1378